Weather reports worldwide

Advertisment
Grünow, Germany (10289): temperature & dewpoint: 14.06.2019 06:00:00 - 20.06.2019 06:00:00 (CEST)Grünow, Germany (10289): temperature 5cm & temperature -5cm: 14.06.2019 06:00:00 - 20.06.2019 06:00:00 (CEST)Grünow, Germany (10289): temperature -20cm & temperature -100cm: 14.06.2019 06:00:00 - 20.06.2019 06:00:00 (CEST)Grünow, Germany (10289): wind speed & gusts: 14.06.2019 06:00:00 - 20.06.2019 06:00:00 (CEST)Grünow, Germany (10289): wind direction: 14.06.2019 06:00:00 - 20.06.2019 06:00:00 (CEST)Grünow, Germany (10289): reduced air pressure: 14.06.2019 06:00:00 - 20.06.2019 06:00:00 (CEST)Grünow, Germany (10289): visibility: 14.06.2019 06:00:00 - 20.06.2019 06:00:00 (CEST)Grünow, Germany (10289): sunshine duration: 14.06.2019 06:00:00 - 20.06.2019 06:00:00 (CEST)Grünow, Germany (10289): precipitation: 14.06.2019 06:00:00 - 20.06.2019 06:00:00 (CEST)
Date & Time tt [°C] td [°C] tt 5cm [°C] tt -5cm [°C] tt -20cm [°C] tt -100cm [°C] ff [km/h] ff [kn] fx [km/h] fx [kn] dd ppp [hPa] vv [km] sd [min] rr [mm]
20.06.2019 06:00:00 19,2 14,2 18,5 20,0 21,9 17,8 6 3 16 9 WNW 1007,4 47 8 0,0
20.06.2019 05:00:00 19,5 13,5 18,0 19,9 22,2 17,8 10 5 22 12 NW 1007,5 57 0 0,2
20.06.2019 04:00:00 20,9 13,0 20,0 20,1 22,6 17,8 18 10 31 17 W 1007,9 44 0 0,0
20.06.2019 03:00:00 19,2 14,2 16,8 20,6 22,9 17,8 7 4 17 9 SSW 1007,4 46 0 0,0
20.06.2019 02:00:00 19,3 15,6 17,6 21,4 23,3 17,7 8 4 12 7 SSW 1007,4 39 0 0,0
20.06.2019 01:00:00 19,6 15,9 17,7 22,1 23,7 17,7 7 4 16 8 SSW 1007,2 40 0 0,0
20.06.2019 00:00:00 21,5 15,9 20,5 22,9 24,1 17,7 9 5 16 9 S 1007,0 44 0 0,0
19.06.2019 23:00:00 22,8 15,9 21,7 23,7 24,5 17,7 11 6 16 8 SSE 1007,4 45 0 0,0
19.06.2019 22:00:00 24,0 16,2 23,4 25,0 24,8 17,7 13 7 17 9 ESE 1007,3 56 0 0,0
19.06.2019 21:00:00 25,9 16,6 25,2 27,0 24,9 17,7 10 6 17 9 ESE 1006,9 44 50 0,0
19.06.2019 20:00:00 29,2 14,6 30,2 28,5 24,9 17,7 9 5 21 11 SE 1007,0 50 60 0,0
19.06.2019 19:00:00 29,6 13,8 31,1 29,4 24,8 17,7 13 7 19 10 SSE 1007,1 72 60 0,0
19.06.2019 18:00:00 29,4 13,7 30,9 30,0 24,6 17,7 13 7 23 12 SE 1007,4 65 39 0,0
19.06.2019 17:00:00 30,2 14,1 32,9 31,9 24,2 17,7 10 6 20 11 SE 1007,9 39 53 0,0
19.06.2019 16:00:00 30,1 12,8 34,5 31,9 23,7 17,7 9 5 23 12 SSE 1008,6 41 55 0,0
19.06.2019 15:00:00 29,5 11,9 33,2 31,1 23,2 17,7 12 6 27 14 SSE 1009,4 75 49 0,0
19.06.2019 14:00:00 28,0 12,3 29,9 28,8 22,7 17,7 11 6 27 14 SSW 1009,8 45 24 0,0
19.06.2019 13:00:00 28,4 11,2 31,7 30,4 22,0 17,7 11 6 28 15 SSE 1010,1 60 59 0,0
19.06.2019 12:00:00 28,0 14,1 32,3 28,9 21,3 17,6 15 8 27 15 SSE 1010,5 46 60 0,0
19.06.2019 11:00:00 26,1 14,8 28,8 26,4 20,7 17,6 14 8 25 13 SE 1010,9 54 60 0,0
19.06.2019 10:00:00 24,7 14,9 26,9 24,0 20,2 17,6 15 8 22 12 ESE 1011,3 48 60 0,0
19.06.2019 09:00:00 22,9 15,1 25,5 21,7 20,0 17,6 7 4 16 9 SE 1011,8 40 60 0,0
19.06.2019 08:00:00 20,8 14,6 22,2 19,7 19,9 17,6 10 5 16 9 ESE 1012,2 34 60 0,0
19.06.2019 07:00:00 19,2 14,2 19,7 18,3 20,1 17,6 9 5 15 8 ESE 1012,6 35 60 0,0
19.06.2019 06:00:00 17,1 13,5 16,1 17,5 20,4 17,6 8 4 13 7 SE 1012,9 34 39 0,0
19.06.2019 05:00:00 14,9 12,4 12,0 17,5 20,7 17,5 2 1 14 7 WNW 1013,4 32 0 0,0
19.06.2019 04:00:00 16,5 12,5 14,2 18,0 21,1 17,5 6 4 12 6 SSE 1013,2 42 0 0,0
19.06.2019 03:00:00 16,1 12,3 13,9 18,6 21,4 17,5 2 1 16 9 NE 1013,6 52 0 0,0
19.06.2019 02:00:00 18,2 12,0 17,0 19,2 21,8 17,5 10 5 15 8 SE 1013,8 56 0 0,0
19.06.2019 01:00:00 19,7 11,8 18,8 19,9 22,2 17,5 10 5 19 10 SE 1014,3 58 0 0,0
19.06.2019 00:00:00 20,5 11,5 19,7 20,6 22,6 17,5 14 8 20 11 ESE 1014,5 59 0 0,0
18.06.2019 23:00:00 20,2 12,2 18,7 21,3 23,0 17,5 14 7 18 10 ESE 1014,6 64 0 0,0
18.06.2019 22:00:00 20,6 12,3 18,7 22,6 23,3 17,5 11 6 16 8 ESE 1014,7 56 4 0,0
18.06.2019 21:00:00 23,2 11,9 22,6 24,4 23,6 17,5 12 6 17 9 ESE 1014,4 54 60 0,0
18.06.2019 20:00:00 25,6 11,8 26,2 26,2 23,6 17,5 12 6 22 12 ESE 1014,7 55 60 0,0
18.06.2019 19:00:00 27,1 11,0 28,8 27,8 23,5 17,5 14 7 23 12 ESE 1014,9 72 60 0,0
18.06.2019 18:00:00 28,1 10,0 30,4 28,9 23,2 17,5 10 5 25 14 S 1015,2 61 60 0,0
18.06.2019 17:00:00 28,1 9,6 31,2 29,4 22,8 17,5 18 10 29 15 SE 1015,7 54 46 0,0
18.06.2019 16:00:00 27,3 9,7 28,8 29,2 22,3 17,5 17 9 30 16 SSE 1016,4 68 48 0,0
18.06.2019 15:00:00 27,6 9,7 31,4 29,3 21,7 17,5 14 8 34 18 S 1017,0 65 59 0,0
18.06.2019 14:00:00 27,5 11,5 30,9 27,6 21,2 17,5 21 12 34 18 S 1017,6 57 37 0,0
18.06.2019 13:00:00 26,7 11,5 29,0 27,2 20,6 17,5 20 11 31 17 SSE 1018,2 60 51 0,0
18.06.2019 12:00:00 26,5 10,7 29,5 25,8 20,1 17,5 23 13 35 19 SSE 1018,6 46 60 0,0
18.06.2019 11:00:00 25,7 11,7 27,9 24,3 19,6 17,5 19 10 29 16 SSE 1019,0 53 60 0,0
18.06.2019 10:00:00 24,5 13,8 26,3 23,8 19,0 17,5 15 8 22 12 SSE 1019,3 46 60 0,0
18.06.2019 09:00:00 22,5 13,6 24,0 21,8 18,7 17,5 12 6 17 9 S 1019,5 44 60 0,0
18.06.2019 08:00:00 20,0 13,5 21,0 19,7 18,5 17,5 11 6 15 8 SSE 1019,7 37 34 0,0
18.06.2019 07:00:00 16,4 13,7 16,4 16,9 18,6 17,5 6 3 9 5 ESE 1019,8 29 14 0,0
18.06.2019 06:00:00 14,0 12,7 13,7 15,5 18,9 17,4 4 2 13 7 E 1020,0 21 36 0,0
18.06.2019 05:00:00 12,8 11,8 11,3 15,2 19,2 17,4 5 3 11 6 NE 1020,2 21 0 0,0
18.06.2019 04:00:00 13,6 11,9 12,2 15,6 19,6 17,4 6 3 11 6 ENE 1020,3 32 0 0,0
18.06.2019 03:00:00 14,7 12,3 12,6 16,0 19,9 17,4 6 3 13 7 ENE 1020,5 33 0 0,0
18.06.2019 02:00:00 16,0 12,7 14,8 16,5 20,4 17,4 9 5 15 8 E 1021,0 40 0 0,0
18.06.2019 01:00:00 16,6 13,4 15,4 17,0 20,8 17,4 9 5 17 9 E 1021,1 40 0 0,0
18.06.2019 00:00:00 17,3 13,6 16,4 17,6 21,3 17,4 11 6 18 10 E 1021,0 46 0 0,0
17.06.2019 23:00:00 17,4 13,9 16,6 18,6 21,8 17,4 9 5 18 10 ENE 1021,0 48 0 0,0
17.06.2019 22:00:00 18,2 15,0 17,1 19,8 22,2 17,5 9 5 16 9 NE 1020,8 49 3 0,0
17.06.2019 21:00:00 20,2 14,6 19,7 21,3 22,6 17,5 11 6 19 10 NE 1020,5 65 58 0,0
17.06.2019 20:00:00 22,1 15,2 21,9 23,2 22,9 17,5 10 6 19 11 NE 1020,5 65 44 0,0
17.06.2019 19:00:00 24,0 13,9 25,6 25,5 22,9 17,5 12 7 21 11 NNE 1020,5 51 57 0,0
17.06.2019 18:00:00 25,2 11,3 28,3 27,5 22,8 17,5 6 4 13 7 N 1020,8 57 56 0,0
17.06.2019 17:00:00 24,0 14,4 25,8 27,1 22,6 17,5 6 3 16 9 NNW 1021,2 57 40 0,0
17.06.2019 16:00:00 24,7 11,4 27,8 29,2 22,1 17,5 8 4 15 8 NW 1021,4 42 54 0,0
17.06.2019 15:00:00 24,6 12,2 28,8 28,3 21,6 17,5 6 3 12 7 NNW 1021,6 49 43 0,0
17.06.2019 14:00:00 23,6 12,9 25,4 27,8 21,0 17,5 9 5 14 7 NW 1021,8 51 43 0,0
17.06.2019 13:00:00 23,7 13,2 27,3 28,1 20,3 17,5 5 3 16 9 W 1022,1 59 48 0,0
17.06.2019 12:00:00 22,9 12,5 26,1 27,2 19,6 17,5 9 5 22 12 SW 1022,3 58 56 0,0
17.06.2019 11:00:00 21,7 12,6 23,9 25,0 18,9 17,5 9 5 19 11 SSW 1022,5 51 57 0,0
17.06.2019 10:00:00 21,4 13,2 23,7 23,3 18,3 17,5 9 5 15 8 SSW 1022,7 48 60 0,0
17.06.2019 09:00:00 19,7 13,1 21,7 20,9 17,9 17,5 7 4 11 6 SW 1022,7 43 60 0,0
17.06.2019 08:00:00 18,3 13,7 19,5 18,7 17,7 17,5 8 5 12 7 SW 1022,7 54 60 0,0
17.06.2019 07:00:00 16,4 13,3 16,9 16,2 17,8 17,5 4 2 11 6 SW 1022,4 57 60 0,0
17.06.2019 06:00:00 13,9 12,0 12,8 14,8 18,0 17,5 5 3 11 6 SSE 1022,2 39 48 0,0
17.06.2019 05:00:00 13,1 11,7 12,6 14,8 18,2 17,5 6 3 8 4 S 1022,0 28 0 0,0
17.06.2019 04:00:00 11,7 10,8 10,9 14,4 18,6 17,5 5 3 8 4 S 1022,1 29 0 0,0
17.06.2019 03:00:00 12,5 10,8 11,0 14,8 19,0 17,5 6 3 10 5 SSW 1022,3 41 0 0,0
17.06.2019 02:00:00 13,3 11,3 11,8 15,2 19,3 17,5 7 4 8 5 SE 1022,2 43 0 0,0
17.06.2019 01:00:00 13,9 12,1 12,4 15,9 19,7 17,5 3 2 5 3 S 1021,8 35 0 0,0
17.06.2019 00:00:00 14,1 12,2 12,2 16,6 20,2 17,5 0 0 4 2 N 1021,5 60 0 0,0
16.06.2019 23:00:00 14,8 12,8 13,1 17,3 20,6 17,5 4 2 6 3 E 1021,4 51 0 0,0
16.06.2019 22:00:00 15,7 12,4 13,4 18,4 20,9 17,5 4 2 6 3 NE 1021,4 63 21 0,0
16.06.2019 21:00:00 17,8 12,5 16,6 19,7 21,3 17,5 6 3 17 9 NNW 1020,9 60 60 0,0
16.06.2019 20:00:00 19,4 11,9 19,8 21,0 21,5 17,5 14 8 25 14 NW 1020,6 66 60 0,0
16.06.2019 19:00:00 20,4 11,5 21,5 22,4 21,5 17,5 21 11 30 16 NW 1020,1 49 57 0,0
16.06.2019 18:00:00 21,1 10,4 22,9 23,1 21,5 17,5 15 8 24 13 NW 1020,1 63 28 0,0
16.06.2019 17:00:00 20,8 11,1 22,0 22,8 21,6 17,5 16 9 29 16 NW 1020,3 48 1 0,0
16.06.2019 16:00:00 21,1 11,5 22,7 22,4 21,7 17,5 19 11 29 16 WNW 1020,3 61 2 0,0
16.06.2019 15:00:00 20,8 11,0 21,7 24,6 21,5 17,5 18 10 29 15 WNW 1020,1 75 23 0,0
16.06.2019 14:00:00 22,5 11,6 26,5 26,6 21,1 17,5 18 10 34 18 WNW 1019,9 75 53 0,0
16.06.2019 13:00:00 21,4 11,1 25,0 26,2 20,6 17,5 23 12 31 17 NNW 1019,3 56 60 0,0
16.06.2019 12:00:00 20,6 11,9 24,2 25,3 20,1 17,5 18 10 33 18 NW 1019,1 44 58 0,0
16.06.2019 11:00:00 19,5 13,0 22,5 24,0 19,6 17,5 16 9 28 15 WNW 1018,7 66 52 0,0
16.06.2019 10:00:00 18,6 13,0 21,6 21,8 19,3 17,5 15 8 29 16 WNW 1018,3 74 48 0,0
16.06.2019 09:00:00 17,6 12,7 20,2 19,8 19,3 17,5 18 10 31 17 NW 1018,0 39 40 0,0
16.06.2019 08:00:00 16,2 12,0 17,5 18,1 19,4 17,5 22 12 31 17 NW 1017,5 57 12 0,0
16.06.2019 07:00:00 15,6 12,4 15,9 17,1 19,6 17,4 19 11 29 15 NW 1016,9 63 0 0,0
16.06.2019 06:00:00 15,4 13,2 15,4 17,1 19,9 17,4 16 9 35 19 WNW 1016,5 47 0 0,0
16.06.2019 05:00:00 15,7 13,4 15,6 17,4 20,2 17,4 25 13 38 20 WNW 1015,5 32 0 0,0
16.06.2019 04:00:00 17,1 15,2 16,8 17,9 20,4 17,4 18 10 30 16 WNW 1014,5 31 0 0,0
16.06.2019 03:00:00 17,8 15,6 17,1 18,4 20,7 17,4 20 11 30 16 W 1014,1 34 0 0,0
16.06.2019 02:00:00 18,1 16,3 17,7 18,5 21,0 17,4 14 7 20 11 WNW 1014,2 19 0 0,0
16.06.2019 01:00:00 17,4 15,9 16,4 18,8 21,3 17,4 10 5 16 8 WNW 1014,1 17 0 0,0
16.06.2019 00:00:00 18,0 16,0 16,9 19,0 21,7 17,4 11 6 25 13 WNW 1013,4 19 0 0,0
15.06.2019 23:00:00 19,0 16,3 18,1 19,7 22,1 17,4 18 10 38 21 W 1013,2 25 0 0,0
15.06.2019 22:00:00 20,6 16,4 19,8 21,3 22,3 17,4 27 15 43 23 WNW 1012,4 29 0 0,0
15.06.2019 21:00:00 22,0 18,9 21,4 22,1 22,5 17,4 17 9 39 21 W 1010,8 19 19 0,0
15.06.2019 20:00:00 23,3 19,2 23,1 23,2 22,6 17,4 23 12 42 23 WSW 1009,6 22 60 0,0
15.06.2019 19:00:00 23,1 19,7 23,7 22,7 23,0 17,4 16 9 23 12 W 1009,4 25 26 0,6
15.06.2019 18:00:00 19,8 17,3 18,0 20,1 23,4 17,4 6 3 59 32 NW 1009,3 0,9 0 7,8
15.06.2019 17:00:00 29,0 19,3 29,5 29,4 23,0 17,3 8 5 25 13 SSW 1008,1 30 49 0,0
15.06.2019 16:00:00 30,2 20,3 33,7 29,3 22,6 17,3 11 6 22 12 SSW 1008,4 25 22 0,0
15.06.2019 15:00:00 29,1 20,7 30,9 27,8 22,3 17,3 13 7 36 19 SSE 1008,6 31 0 0,0
15.06.2019 14:00:00 29,4 19,8 32,1 28,0 21,8 17,3 25 13 40 22 SSE 1008,6 35 16 0,0
15.06.2019 13:00:00 28,9 19,3 31,8 27,6 21,3 17,3 25 14 44 24 SE 1008,8 32 56 0,0
15.06.2019 12:00:00 27,7 19,0 30,1 26,3 20,9 17,3 24 13 52 28 SE 1009,0 36 60 0,0
15.06.2019 11:00:00 25,6 17,9 27,1 24,0 20,6 17,3 29 16 50 27 ESE 1010,1 31 44 0,0
15.06.2019 10:00:00 23,7 17,4 25,7 22,3 20,4 17,3 27 14 44 24 E 1011,0 32 25 0,0
15.06.2019 09:00:00 21,1 16,4 21,7 20,6 20,4 17,3 22 12 32 18 E 1011,7 34 0 0,0
15.06.2019 08:00:00 19,9 15,9 20,1 19,8 20,5 17,2 21 11 35 19 E 1011,9 36 0 0,0
15.06.2019 07:00:00 19,8 15,7 19,3 19,3 20,7 17,2 21 11 37 20 E 1012,3 35 0 0,0
15.06.2019 06:00:00 19,6 15,6 19,3 19,3 20,9 17,2 22 12 32 17 ESE 1013,8 34 0 0,0
15.06.2019 05:00:00 19,9 15,2 19,5 19,5 21,1 17,2 17 9 27 15 E 1014,1 33 0 0,0
15.06.2019 04:00:00 20,4 15,1 19,9 19,7 21,3 17,2 15 8 23 12 E 1014,9 39 0 0,0
15.06.2019 03:00:00 20,9 15,0 20,4 19,9 21,6 17,2 16 9 26 14 ESE 1015,6 38 0 0,0
15.06.2019 02:00:00 21,1 14,6 20,6 20,1 21,8 17,2 15 8 27 14 ESE 1016,2 48 0 0,0
15.06.2019 01:00:00 21,3 14,5 20,8 20,5 22,1 17,2 15 8 24 13 ESE 1016,7 45 0 0,0
15.06.2019 00:00:00 21,1 14,7 20,6 20,8 22,4 17,2 16 8 23 12 E 1016,8 48 0 0,0
14.06.2019 23:00:00 21,6 14,6 20,8 21,4 22,8 17,2 14 8 22 12 E 1016,8 52 0 0,0
14.06.2019 22:00:00 21,6 15,5 20,6 22,1 23,1 17,2 14 8 22 12 E 1016,9 53 0 0,0
14.06.2019 21:00:00 22,3 16,2 21,5 23,4 23,4 17,2 11 6 21 11 E 1017,0 48 4 0,0
14.06.2019 20:00:00 23,5 16,5 23,3 24,4 23,6 17,2 14 7 22 12 E 1016,9 56 0 0,0
14.06.2019 19:00:00 24,5 15,7 24,6 25,7 23,7 17,2 12 7 19 10 E 1017,3 60 0 0,0
14.06.2019 18:00:00 25,2 14,3 26,1 27,3 23,7 17,2 13 7 19 11 ESE 1017,5 47 0 0,0
14.06.2019 17:00:00 27,7 8,4 29,7 29,6 23,4 17,2 11 6 17 9 SSE 1017,8 71 60 0,0
14.06.2019 16:00:00 28,2 11,2 32,2 31,0 22,9 17,2 11 6 19 10 SSE 1018,0 73 60 0,0
14.06.2019 15:00:00 27,5 9,4 31,7 31,0 22,3 17,2 11 6 22 12 SSE 1018,5 75 60 0,0
14.06.2019 14:00:00 27,3 12,3 32,5 30,5 21,6 17,2 11 6 22 12 S 1018,7 57 60 0,0
14.06.2019 13:00:00 26,1 12,9 30,5 29,5 20,9 17,2 10 6 21 12 SSE 1019,1 52 60 0,0
14.06.2019 12:00:00 24,9 13,9 29,5 28,2 20,2 17,1 11 6 20 11 SSE 1019,4 48 60 0,0
14.06.2019 11:00:00 23,7 15,3 27,4 26,2 19,7 17,1 8 4 17 9 SSE 1019,6 43 60 0,0
14.06.2019 10:00:00 22,3 15,6 26,1 23,2 19,3 17,1 10 5 17 9 S 1019,7 47 60 0,0
14.06.2019 09:00:00 20,5 14,4 23,1 20,3 19,1 17,1 10 5 19 11 SE 1019,4 75 60 0,0
14.06.2019 08:00:00 18,5 13,1 20,0 18,7 19,1 17,1 11 6 20 11 ESE 1019,2 43 60 0,0
14.06.2019 07:00:00 16,6 12,7 17,5 17,1 19,3 17,1 13 7 19 10 ESE 1018,7 55 60 0,0
14.06.2019 06:00:00 15,0 12,0 14,2 16,3 19,6 17,1 9 5 15 8 E 1018,4 56 45 0,0

tt = temperature
td = dewpoint
tt 5cm = temperature 5cm
tt -5cm = temperature -5cm
tt -20cm = temperature -20cm
tt -100cm = temperature -100cm
ff = wind speed
fx = gusts
dd = wind direction
ppp = reduced air pressure
vv = visibility
sd = sunshine duration
rr = precipitation

Next stations